一网星座-0186星 (ONEWEB-0186 )

导读 | 星芒AI

ONEWEB-0186 是 OneWeb 卫星星座计划中的一颗低轨通信卫星,旨在为全球提供高速互联网服务。该卫星于2023年发射,运行在约1200公里高度的极地轨道,支持偏远和农村地区的宽带接入。OneWeb 项目由多家国际企业与政府合作推进,致力于构建全球覆盖的卫星通信网络,提升全球数字连接能力。ONEWEB-0186 在系统中承担数据传输任务,是实现全球互联网覆盖的重要组成部分。

基本信息
目录编号:
48229
目录名称:
ONEWEB-0186
国际标识:
2021-031V
轨道中心:
EARTH
卫星名称:
一网星座-0186星
卫星全名:
一网星座-0186星 (ONEWEB-0186 )
卫星状态:
在轨 (已飞行1695 天)
发射日期:
2021-04-25 UTC
国别 :
英国 (GB)
星等 :
--
轨道信息
数据来源 国际轨道数据
星历时间: 2025-12-15T05:53:26+0800
21小时前
查看轨道信息
半长轴: 7583.925km
偏心率: 0.0001647
轨道倾角: 87.900°
近地点辐角 84.289°
升交点赤经 326.403°
平近点角 275.843°
近地点: 1204.54km
远地点: 1207.04km
周期: 109.547分钟
每日圈数: 13.145036
详细信息
平衡模式:
三轴稳定
覆盖范围:
全球
运营商:
一网卫星公司
运营商所在国:
英国
制造商(研发单位):
一网卫星公司
制造商所在国:
英国
使用方式:
暂无
卫星简介
OneWeb卫星网络由648颗重约125公斤的微型卫星组成,运行在1200公里的轨道上。 每颗卫星都能够提供至少每秒8千兆位的吞吐量,以使用其高吞吐量的Ku频段有效载荷为家庭和移动平台提供互联网接入。该卫星仍在工作。
2D轨道图
3D轨道图
轨道高度分析图
轨道倾角分析图
轨道综合分析图
查看轨道综合分析图